This demonstration page uses our WeatherBlox Daily Observations layout. Learn more.

38.88101, -77.10428

Hourly Observations for October 13, 2016

Temp ( °F °C ) Dew Point ( °F °C ) Humidity (%) Winds ( mph kmh ) Pressure ( in mb ) Visibility ( mi km ) Precip ( " mm )
12:52 am 00:52 Clear 57 13.9 55 12.8 93 93 SW 3 6 30.18 1022 10 16.09344 0 0
1:52 am 01:52 Clear 57 13.9 55 12.8 93 93 SW 3 6 30.15 1021 10 16.09344 0 0
2:52 am 02:52 Partly Cloudy 56 13.3 54 12.2 93 93 Calm 30.15 1021 10 16.09344 0 0
3:52 am 03:52 Mostly Cloudy 54 12.2 54 12.2 100 100 SW 5 7 30.12 1020 10 16.09344 0 0
4:49 am 04:49 Mostly Cloudy 54 12 54 12 100 100 WSW 5 7 30.12 1020 10 16.09344 0 0
4:52 am 04:52 Cloudy 54 12.2 54 12.2 100 100 WSW 5 7 30.12 1020 10 16.09344 0 0
4:57 am 04:57 Cloudy 55 12.8 54 12.2 96 96 WSW 5 7 30.12 1020 10 16.09344 0 0
5:07 am 05:07 Cloudy with Mist and Fog 55 12.8 55 12.8 100 100 SSW 3 6 30.12 1020 2.5 4.02336 0 0
5:11 am 05:11 Cloudy with Mist and Fog 55 12.8 55 12.8 100 100 Calm 30.12 1020 1.25 2.01168 0 0
5:15 am 05:15 Cloudy with Mist and Fog 55 12.8 55 12.8 100 100 Calm 30.12 1020 0.75 1.207008 0 0
5:18 am 05:18 Cloudy with Fog 55 13 55 13 100 100 Calm 30.12 1020 0.25 0.402336 0 0
5:29 am 05:29 Cloudy with Fog 56 13.3 55 12.8 97 97 SSW 3 6 30.12 1020 1 1.609344 0 0
5:35 am 05:35 Mostly Cloudy with Fog 55 12.8 55 12.8 100 100 SSW 3 6 30.12 1020 1 1.609344 0 0
5:52 am 05:52 Mostly Cloudy with Fog 55 12.8 55 12.8 100 100 SW 3 6 30.12 1020 1 1.609344 0 0
6:03 am 06:03 Mostly Cloudy with Fog 55 13 55 13 100 100 SW 3 6 30.12 1020 0.25 0.402336 0 0
6:12 am 06:12 Mostly Cloudy with Fog 55 13 55 13 100 100 S 3 6 30.12 1020 0.5 0.804672 0 0
6:26 am 06:26 Cloudy with Mist and Fog 55 13 55 13 100 100 SSW 3 6 30.12 1020 1 1.609344 0 0
6:52 am 06:52 Cloudy with Mist and Fog 55 12.8 55 12.8 100 100 SSW 6 9 30.12 1020 2 3.218688 0 0
6:56 am 06:56 Cloudy with Mist and Fog 55 13 55 13 100 100 SSW 6 9 30.12 1020 1.25 2.01168 0 0
7:08 am 07:08 Cloudy with Fog 55 13 55 13 100 100 S 6 9 30.12 1020 0.5 0.804672 0 0
7:48 am 07:48 Cloudy with Fog 55 13 55 13 100 100 WSW 5 7 30.12 1020 1 1.609344 0 0
7:52 am 07:52 Cloudy with Fog 55 12.8 55 12.8 100 100 WSW 5 7 30.12 1020 1 1.609344 0 0
8:35 am 08:35 Cloudy with Mist and Fog 57 13.9 57 13.9 100 100 SSW 5 7 30.12 1020 1.5 2.414016 0 0
8:42 am 08:42 Mostly Cloudy with Mist and Fog 57 14 57 14 100 100 SSW 5 7 30.12 1020 3 4.828032 0 0
8:52 am 08:52 Mostly Cloudy with Mist and Fog 57 13.9 57 13.9 100 100 S 7 11 30.12 1020 4 6.437376 0 0
9:18 am 09:18 Mostly Cloudy 57 14 57 14 100 100 S 6 9 30.12 1020 7 11.265408 0 0
9:52 am 09:52 Mostly Cloudy 59 15 58 14.4 96 96 S 7 11 30.12 1020 10 16.09344 0 0
10:52 am 10:52 Mostly Cloudy 64 17.8 58 14.4 81 81 S 9 15 30.12 1020 10 16.09344 0 0
11:52 am 11:52 Mostly Cloudy 66 18.9 57 13.9 73 73 S 7 11 30.12 1020 10 16.09344 0 0
12:52 pm 12:52 Mostly Cloudy 66 18.9 58 14.4 75 75 S 7 11 30.09 1019 10 16.09344 0 0
1:52 pm 13:52 Cloudy 69 20.6 58 14.4 68 68 Calm 30.09 1019 10 16.09344 0 0
2:52 pm 14:52 Mostly Cloudy 70 21.1 56 13.3 61 61 NNW 10 17 30.09 1019 10 16.09344 0 0
3:52 pm 15:52 Partly Cloudy 72 22.2 56 13.3 57 57 NNW 13 20 30.09 1019 10 16.09344 0 0
4:52 pm 16:52 Partly Cloudy 72 22.2 57 13.9 59 59 NW 13 20 30.12 1020 10 16.09344 0 0
5:52 pm 17:52 Partly Cloudy 70 21.1 56 13.3 61 61 NNW 12 19 30.12 1020 10 16.09344 0 0
6:52 pm 18:52 Mostly Clear 67 19.4 56 13.3 68 68 N 9 15 30.15 1021 10 16.09344 0 0
7:52 pm 19:52 Mostly Clear 66 18.9 56 13.3 70 70 NNW 14 22 30.15 1021 10 16.09344 0 0
8:52 pm 20:52 Mostly Clear 63 17.2 54 12.2 73 73 NNW 13 20 30.21 1023 10 16.09344 0 0
9:52 pm 21:52 Clear 62 16.7 51 10.6 67 67 NNW 15 24 30.21 1023 10 16.09344 0 0
10:52 pm 22:52 Clear 60 15.6 48 8.9 65 65 NNW 12 19 30.24 1024 10 16.09344 0 0
11:52 pm 23:52 Clear 57 13.9 44 6.7 62 62 NNW 14 22 30.27 1025 10 16.09344 0 0

Powered by AerisWeather